This is the latest recevied weather packets stored in our database for station/object PA2JOK. If no packets are shown the sender has not sent any weather packets the latest 10 day(s).
| Time | Temp. | Humidity | Pressure | Rain* | Wind** | Luminosity | Snow |
|---|---|---|---|---|---|---|---|
| 1777877283 | 12.78° C | 99% | 1012.1 hPa | 0 mm | - | - | - |
| 1777876382 | 12.22° C | 99% | 1012.1 hPa | 0 mm | - | - | - |
| 1777875483 | 12.22° C | 99% | 1011.9 hPa | 0 mm | - | - | - |
| 1777874583 | 11.67° C | 99% | 1011.8 hPa | 0 mm | - | - | - |
| 1777873683 | 11.67° C | 99% | 1011.6 hPa | 0 mm | - | - | - |
| 1777872782 | 11.67° C | 99% | 1011.3 hPa | 0 mm | - | - | - |
| 1777871882 | 11.67° C | 99% | 1011.2 hPa | 0 mm | - | - | - |
| 1777870983 | 11.67° C | 98% | 1011.1 hPa | 0.25 mm | - | - | - |
| 1777870082 | 11.11° C | 98% | 1011.1 hPa | 0.25 mm | - | - | - |
| 1777869183 | 11.11° C | 98% | 1011 hPa | 0.25 mm | - | - | - |
| 1777868282 | 11.11° C | 98% | 1011.2 hPa | 0.25 mm | - | - | - |
| 1777867383 | 11.11° C | 98% | 1011.2 hPa | 0 mm | - | - | - |
| 1777866482 | 11.11° C | 98% | 1011.1 hPa | 0 mm | - | - | - |
| 1777865582 | 11.11° C | 97% | 1011.5 hPa | 0 mm | - | - | - |
| 1777864682 | 11.11° C | 97% | 1011.5 hPa | 0 mm | - | - | - |
| 1777863782 | 11.11° C | 97% | 1011.4 hPa | 0 mm | - | - | - |
| 1777862883 | 11.11° C | 96% | 1011.3 hPa | 0 mm | - | - | - |
| 1777861982 | 11.11° C | 95% | 1011.2 hPa | 0 mm | - | - | - |
| 1777861083 | 11.67° C | 94% | 1011.1 hPa | 0 mm | - | - | - |
| 1777860183 | 11.67° C | 93% | 1010.9 hPa | 0 mm | - | - | - |
| 1777859283 | 12.22° C | 93% | 1011.1 hPa | 0 mm | - | - | - |
| 1777858383 | 12.22° C | 93% | 1010.9 hPa | 0 mm | - | - | - |
| 1777857484 | 12.22° C | 93% | 1010.8 hPa | 0 mm | - | - | - |
| 1777856582 | 12.22° C | 92% | 1010.9 hPa | 0 mm | - | - | - |
| 1777855683 | 12.22° C | 92% | 1011 hPa | 0 mm | - | - | - |
* Rain latest hour (hover to see other rain measurements)
** Current wind speed in m/s (hover to see current wind gust speed)